星链-5326 (STARLINK-5326 )

导读

STARLINK-5326是美国太空探索技术公司SpaceX星链星座的一员,于2023年2月17日发射入轨。星链计划旨在搭建全球覆盖的低轨卫星互联网,为全球尤其是偏远地区提供高速低时延宽带服务,目前已完成多批次卫星部署,全球用户规模突破数百万。该卫星进入近地轨道后,将与其他星链卫星协同,补充完善星座通信能力,支撑全球网络覆盖,同时星链项目也兼具商业与军事应用潜力。

Basic Information
目录编号:
55656
目录名称:
STARLINK-5326
国际标识:
2023-021AE
轨道中心:
EARTH
卫星名称:
星链-5326
卫星全名:
星链-5326 (STARLINK-5326 )
卫星状态:
已陨落 最后检测时间 2025-12-02
发射日期:
2023-02-17 UTC
国别 :
美国 (US)
星等 :
--
Orbit Information
数据来源 国际轨道数据
星历时间: 2025-12-03T01:38:19+0800
轨道信息已过期194天
半长轴: 6526.375km
偏心率: 0.0005821
轨道倾角: 69.977°
近地点辐角 290.723°
升交点赤经 53.162°
平近点角 69.338°
近地点: 144.44km
远地点: 152.04km
周期: 87.452分钟
每日圈数: 16.466253
Detailed Information
固有亮度:
5
最大亮度:
2.5
卫星平台:
Starlink v1.5
覆盖范围:
全球
运营商:
太空探索技术公司
运营商所在国:
美国
制造商(研发单位):
太空探索技术公司
制造商所在国:
美国
使用方式:
暂无
Satellite Introduction
星链(Starlink)计划是由太空探索技术公司(SpaceX)提出的一个巨型低轨卫星互联网星座项目,计划在2019年至2024年间在太空搭建由约1.2万颗卫星组成的“星链”网络,其中1584颗将部署在地球上空550千米处的近地轨道,并从2020年开始工作。该卫星仍在工作。